This is the latest recevied weather packets stored in our database for station/object N0TKN. If no packets are shown the sender has not sent any weather packets the latest 10 day(s).
| Time | Temp. | Humidity | Pressure | Rain* | Wind** | Luminosity | Snow |
|---|---|---|---|---|---|---|---|
| 1777867518 | 20.56° C | 50% | 1008 hPa | 0 mm | - | 0 W/m² | - |
| 1777866918 | 20.56° C | 50% | 1008 hPa | 0 mm | - | 0 W/m² | - |
| 1777866318 | 21.11° C | 49% | 1008 hPa | 0 mm | - | 0 W/m² | - |
| 1777865718 | 21.11° C | 49% | 1008.2 hPa | 0 mm | - | 0 W/m² | - |
| 1777865115 | 21.11° C | 48% | 1008.2 hPa | 0 mm | - | 0 W/m² | - |
| 1777864518 | 21.67° C | 47% | 1008.2 hPa | 0 mm | - | 0 W/m² | - |
| 1777863916 | 21.67° C | 46% | 1008.1 hPa | 0 mm | - | 0 W/m² | - |
| 1777863316 | 22.22° C | 46% | 1008.2 hPa | 0 mm | - | 0 W/m² | - |
| 1777862716 | 22.22° C | 46% | 1008.1 hPa | 0 mm | - | 0 W/m² | - |
| 1777862116 | 22.22° C | 45% | 1008 hPa | 0 mm | - | 0 W/m² | - |
| 1777861516 | 22.22° C | 46% | 1008 hPa | 0 mm | - | 0 W/m² | - |
| 1777860916 | 22.22° C | 46% | 1008 hPa | 0 mm | - | 0 W/m² | - |
| 1777860319 | 22.22° C | 47% | 1008 hPa | 0 mm | - | 0 W/m² | - |
| 1777859716 | 22.78° C | 48% | 1008.1 hPa | 0 mm | - | 0 W/m² | - |
| 1777859117 | 22.78° C | 48% | 1008.1 hPa | 0 mm | - | 0 W/m² | - |
| 1777858517 | 23.33° C | 47% | 1008 hPa | 0 mm | - | 0 W/m² | - |
| 1777857917 | 23.33° C | 47% | 1008.1 hPa | 0 mm | - | 0 W/m² | - |
| 1777857317 | 23.33° C | 47% | 1008 hPa | 0 mm | - | 1 W/m² | - |
| 1777856717 | 23.89° C | 46% | 1007.9 hPa | 0 mm | - | 3 W/m² | - |
| 1777856117 | 23.89° C | 45% | 1008 hPa | 0 mm | - | 7 W/m² | - |
| 1777855517 | 24.44° C | 45% | 1008 hPa | 0 mm | - | 17 W/m² | - |
| 1777854918 | 24.44° C | 45% | 1008.2 hPa | 0 mm | - | 27 W/m² | - |
| 1777854318 | 25° C | 43% | 1008.3 hPa | 0 mm | - | 34 W/m² | - |
| 1777853718 | 25.56° C | 42% | 1008.2 hPa | 0 mm | - | 47 W/m² | - |
| 1777853118 | 25.56° C | 40% | 1008.2 hPa | 0 mm | - | 71 W/m² | - |
* Rain latest hour (hover to see other rain measurements)
** Current wind speed in m/s (hover to see current wind gust speed)